Home > Time Zones > World Clock > Weather > Ghana > Accra > Past weeks

Flag for Ghana Weather past 2 weeks in Accra, Ghana

Now
90 °F

Passing clouds.


Feels Like: 100 °F
Forecast: N/A
Wind: 12 mph from South

Location: Accra Airport

Current Time: Mar 5, 2015 at 3:04:05 PM

Latest Report: Mar 5, 2015 at 1:57 PM


Visibility: N/A

Pressure: 29.80 "Hg

Humidity: 63%

Dew point: 75 °F

Location of AccraLocation

Historic Weather in Accra — Graph

°F

Accra temperature yesterday

Maximum temperature yesterday: 90 °F (at 11:00 AM)
Minimum temperature yesterday: 79 °F (at 6:00 AM)
Average temperature yesterday: 84 °F

Past Weeks' High & Low Weather Summary

 TemperatureHumidityPressure
High93 °F (Mar 1, 11:51 AM)100% (Feb 18, 10:00 PM)29.92 "Hg (Feb 18, 10:00 PM)
Low73 °F (Feb 18, 10:00 PM)49% (Mar 2, 12:00 PM)29.74 "Hg (Feb 18, 2:00 PM)
Average83 °F81%29.83 "Hg
* Reported Feb 18 1:00 PM — Mar 5 1:57 PM, Accra, Weather by CustomWeather, © 2015

Note: Actual official high and low records may vary slightly from our data, if they occured in-between our weather recording intervals... More about our weather records

Advertising

Accra weather history for previous 24 hours

 ConditionsComfort  
Time TempWeatherWind HumidityBarometerVisibility
1:57 PM
Thu, Mar 5
90 °FPassing clouds.12 mph63%29.80 "HgN/A
1:00 PM88 °FPassing clouds.10 mph66%29.83 "HgN/A
12:00 PM88 °FPassing clouds.10 mph66%29.86 "HgN/A
10:58 AM88 °FWarm.9 mph66%29.89 "HgN/A
10:00 AM86 °FPassing clouds.7 mph75%29.89 "HgN/A
9:00 AM84 °FPassing clouds.6 mph79%29.89 "HgN/A
8:00 AM81 °FSunny.8 mph89%29.89 "Hg10 mi
7:00 AM79 °FSunny.7 mph94%29.86 "Hg10 mi
6:00 AM79 °FClear.7 mph94%29.83 "Hg10 mi
4:00 AM79 °FClear.3 mph94%29.83 "Hg10 mi
3:00 AM81 °FPassing clouds.6 mph89%29.83 "HgN/A
2:00 AM82 °FClear.7 mph84%29.83 "Hg10 mi
11:00 PM
Wed, Mar 4
82 °FPassing clouds.5 mph84%29.92 "HgN/A
10:00 PM82 °FClear.8 mph84%29.89 "Hg10 mi
9:00 PM82 °FClear.6 mph84%29.89 "Hg10 mi
8:00 PM82 °FPassing clouds.7 mph89%29.86 "HgN/A
7:00 PM84 °FPassing clouds.12 mph79%29.83 "HgN/A
6:00 PM84 °FScattered clouds.8 mph79%29.83 "HgN/A
5:00 PM86 °FPassing clouds.12 mph75%29.80 "HgN/A
4:00 PM86 °FPassing clouds.14 mph75%29.80 "HgN/A
3:00 PM88 °FPassing clouds.13 mph66%29.80 "HgN/A
Weather by CustomWeather, © 2015

See weather overviewHow to use our weather pages